BLOCK DM-SL DEB, 46091

Orbit data source: Space-Track

BLOCK DM-SL DEB, 46091 is space debris in GEO originally from a launch on Tue, 24 Dec 2019 UTC launched from the Tyuratam Missile And Space Complex (TTMTR). Debris objects in space refer to the collection of defunct objects orbiting the Earth. Examples of debris include non-operational satellites, rocket bodies, and fragments generated from explosions, collisions, or faulty payload assembly.

Not visible in the next 10 days
Identifier
46091, 2019-095E
Orbit
GEO
Country
Flag of CISCIS
Related business
Manufacturer
Lavochkin
Mission
Spacecraft
Bus & Motor
Unknown
Mass
Unknown
Launch date (UTC)
2019-12-24 (6 years ago)
Launch vehicle
Unknown
Launch site
Tyuratam Missile And Space Complex (TTMTR)
Object type
Payload
Rocket body
Debris
Shape & HBR
Unknown shape, 1.1 m
Radar Cross Section
Medium (>0.1 m² and <1 m²)

Expand to show TLE details & history
Last TLE update: 3 days ago

TLE from 3 days ago
0 BLOCK DM-SL DEB
1 46091U 19095E   25298.21047375 -.00000047  00000-0  00000-0 0  9991
2 46091   4.7379  76.4428 0101365 199.6374 159.9743  1.03265623 21311
Epoch: 2025-10-25T05:03Z
TLE epoch observation values (Epoch: 2025-10-25T05:03:04.932Z)
Latitude
-0.00001°
Longitude
-33.20563°
Altitude
35,360.822 km
Speed
3.076 km/s
True Right ascension
05h 05m 38s
True Declination
0° 00' 00"
Sunlit
Object was in daylight at epoch
Visualization orbit readout
Latitude
Unknown
Longitude
Unknown
Altitude
Unknown
Speed
Unknown
Apparent Right ascension
Unknown
Apparent Declination
Unknown
Sunlit
N/A
Visualization observer readout
Local Sidereal Time
04:19:34
Azimuth
Unknown
Elevation
Unknown
Doppler factor
Unknown
Orbital elements
Apogee altitude
35,387.849 km
Perigee altitude
34,549.623 km
Semi-major axis
41,346.873 km
Eccentricity
0.01014
Inclination
4.7379°
RAAN
76.4428°
Arg. of periapsis
199.6374°
True anomaly
160.36738°
Mean anomaly
159.9743°
Eccentric anomaly
160.17131°
Mean motion
0.25815 °/min
Orbital period
1,394.52 mins
BSTAR
0
Loading maneuver chart data...
Computing Atmospheric mass density...
Loading historical data...
Loading historical data...
Loading historical data...
Loading historical data...
Loading historical data...
Loading historical data...
Loading historical data...
Other satellites on launch #95 in the year 2019 (2019-12-24 UTC)

Documentation

Showing up to 5 results
|